Regional Weather Roundup
Issued by NWS

Home | Current Version | Previous Version | Text Only | Print | Product List | Glossary Off
Versions: 1 2 3 4 5 6 7 8 9 10 11 12 13 14 15 16 17 18 19 20 21 22 23 24 25 26 27 28 29 30 31 32 33 34 35 36 37 38 39 40 41 42 43 44 45 46 47 48 49 50

661
ASUS44 KLIX 271010
RWRLA
LOUISIANA WEATHER ROUNDUP
NATIONAL WEATHER SERVICE NEW ORLEANS LA
400 AM CST THU NOV 27 2014

NOTE: "FAIR" INDICATES FEW OR NO CLOUDS BELOW 12,000 FEET WITH NO
      SIGNIFICANT WEATHER AND/OR OBSTRUCTIONS TO VISIBILITY.
      SKY/WX - SKY CONDITION AND SIGNIFICANT WEATHER.
      TMP - AIR TEMPERATURE.    DP   - DEWPOINT TEMPERATURE.
      RH  - RELATIVE HUMIDITY.  PRES - PRESSURE.
      HX  - HEAT INDEX.         WCI  - WIND CHILL INDEX.

*  THESE STATIONS ARE NOT NWS OR FAA STATIONS AND ARE NOT UNDER
   NWS QUALITY CONTROL.

LAZ040-048-061>063-065-066-069-271100-
SOUTHEAST LOUISIANA

CITY           SKY/WX    TMP DP  RH WIND       PRES   REMARKS
N.O. AUDUBON     N/A     54  47  78 MISG        N/A
N.O. INTL ARPT CLEAR     53  46  77 NW8       30.33R
N.O. LAKEFRONT CLEAR     56  47  71 NW14      30.33R
N.O. DOWNTOWN* FAIR      55  43  62 N3        30.33R
SLIDELL        CLEAR     47  42  83 CALM      30.32R
BATON ROUGE    CLEAR     42  40  92 W3        30.35R
BOOTHVILLE     CLEAR     56  49  77 NW10      30.32R
BELLE CHASSE   CLEAR     54  44  69 NW5       30.32R
BOGALUSA*        N/A     39  35  85 CALM      30.33S
NEW ROADS*     FAIR      41  39  90 W3        30.36R
GONZALES*      FAIR      47  47 100 CALM      30.34R
HAMMOND*       CLEAR     41  37  87 CALM      30.35S
HOUMA*         CLEAR     52  46  79 NW5       30.33R
PORT FOURCHON* SUNNY     57  50  77 NW12      30.36R

$$

LAZ041-044-053-054-271100-
SOUTHWEST LOUISIANA

CITY           SKY/WX    TMP DP  RH WIND       PRES   REMARKS
LAKE CHARLES   CLEAR     44  41  89 CALM      30.37R
LAFAYETTE      CLEAR     47  41  80 N6        30.36R
PATTERSON      CLEAR     48  43  81 CALM      30.37R
SALT POINT       N/A     56  45  66 N5        30.34R
NEW IBERIA     CLEAR     46  41  82 NW3       30.36R
CHENAULT AIRPK NOT AVBL

$$

LAZ027-028-271100-
CENTRAL LOUISIANA

CITY           SKY/WX    TMP DP  RH WIND       PRES   REMARKS
FORT POLK      CLEAR     45  36  69 NW3       30.38R
ALEXANDRIA INT CLEAR     44  36  73 W3        30.36R
ALEXANDRIA     CLEAR     49  33  54 N8        30.36R

$$

LAZ001-002-271100-
NORTHWEST LOUISIANA

CITY           SKY/WX    TMP DP  RH WIND       PRES   REMARKS
SHREVEPORT     CLEAR     45  30  55 NW8       30.43R
BARKSDALE AFB  CLEAR     42  30  63 NW9       30.43R
DTN SHREVEPORT CLEAR     42  29  59 NW6       30.44R

$$

LAZ014-016-271100-
NORTHEAST LOUISIANA

CITY           SKY/WX    TMP DP  RH WIND       PRES   REMARKS
MONROE         CLEAR     44  32  62 N12       30.40R
TALLULAH       CLEAR     41  33  73 NW7       30.38R

$$




USA.gov is the U.S. government's official web portal to all federal, state and local government web resources and services.